Columbia, MO

1:22 PM CDT on April 20, 2018 (GMT -0500)
Columbia Regional

Weather History for KCOU - May, 2012

Change the Weather History Date:

Saturday, May 5, 2012

  Actual Average Record
Temperature  
Mean Temperature 78 °F 61 °F  
Max Temperature 87 °F 72 °F 93 °F (1952)
Min Temperature 68 °F 50 °F 35 °F (1944)
Degree Days  
Heating Degree Days 0 5  
Month to date heating degree days 0 28  
Since 1 July heating degree days 3754 4931  
Cooling Degree Days 13 1  
Month to date cooling degree days 51 5  
Year to date cooling degree days 138 30  
Growing Degree Days 28 (Base 50)    
Moisture  
Dew Point 70 °F    
Average Humidity 77    
Maximum Humidity 97    
Minimum Humidity 57    
Precipitation  
Precipitation 0.00 in 0.18 in 1.82 in (1961)
Month to date precipitation 0.84 0.85  
Year to date precipitation 16.62 12.42  
Snow  
Snow 0.00 in 0.00 in T in (1944)
Month to date snowfall 0.0 0.0  
Since 1 July snowfall 6.6 18.0  
Snow Depth 0.00 in    
Sea Level Pressure  
Sea Level Pressure 29.86 in    
Wind  
Wind Speed 6 mph (SSE)    
Max Wind Speed 13 mph    
Max Gust Speed 16 mph    
Visibility 8 miles    
Events Fog    
T = Trace of Precipitation, MM = Missing Value Source: NWS Daily Summary

Daily Weather History Graph

Daily Weather History Graph

Search for Another Location

Airport or City:

Astronomy

May. 05, 2012 Rise Set
Actual Time 6:06 AM CDT 8:05 PM CDT
Civil Twilight 5:36 AM CDT 8:34 PM CDT
Nautical Twilight 5:01 AM CDT 9:10 PM CDT
Astronomical Twilight 4:23 AM CDT 9:48 PM CDT
Moon 7:58 PM CDT (5/5) 5:28 AM CDT (5/5)
Length of Visible Light 14h 57m
Length of Day
13h 59m
Full, 100% of the Moon is Illuminated
May 5
Full
May 5
Full
May 12
Last Quarter
May 20
New
May 28
First Quarter

Hourly Weather History & Observations

Time (CDT) Temp. Heat Index Dew Point Humidity Pressure Visibility Wind Dir Wind Speed Gust Speed Precip Events Conditions
12:54 AM 73.0 °F - 70.0 °F 90% 29.84 in 8.0 mi Calm Calm - N/A   Clear
1:54 AM 72.0 °F - 70.0 °F 93% 29.83 in 6.0 mi South 4.6 mph - N/A   Clear
2:18 AM 69.8 °F - 68.0 °F 94% 29.86 in 1.8 mi SSW 4.6 mph - N/A   Clear
2:31 AM 71.6 °F - 69.8 °F 94% 29.87 in 3.0 mi South 4.6 mph - N/A   Clear
2:54 AM 72.0 °F - 70.0 °F 93% 29.85 in 6.0 mi Calm Calm - N/A   Clear
3:54 AM 72.0 °F - 70.0 °F 93% 29.88 in 7.0 mi West 3.5 mph - N/A   Clear
4:54 AM 71.1 °F - 69.1 °F 93% 29.87 in 9.0 mi Calm Calm - N/A   Clear
5:44 AM 69.8 °F - 68.0 °F 94% 29.88 in 1.8 mi SSE 4.6 mph - N/A   Clear
5:54 AM 68.0 °F - 66.0 °F 93% 29.86 in 0.5 mi SE 3.5 mph - N/A Fog Fog
6:07 AM 69.8 °F - 66.2 °F 88% 29.89 in 1.0 mi ESE 3.5 mph - N/A   Mist
6:17 AM 69.8 °F - 68.0 °F 94% 29.89 in 1.5 mi ESE 4.6 mph - N/A   Clear
6:49 AM 69.8 °F - 68.0 °F 94% 29.90 in 3.0 mi ESE 5.8 mph - N/A   Clear
6:50 AM 70.0 °F - 68.0 °F 93% 29.88 in 3.0 mi ESE 4.6 mph - N/A   Clear
7:54 AM 72.0 °F - 70.0 °F 93% 29.88 in 7.0 mi SSE 4.6 mph - N/A   Clear
8:54 AM 75.9 °F - 70.0 °F 82% 29.89 in 10.0 mi South 5.8 mph - N/A   Clear
9:54 AM 80.1 °F 83.2 °F 70.0 °F 71% 29.88 in 10.0 mi South 8.1 mph - 0.01 in   Clear
10:54 AM 81.0 °F 84.9 °F 71.1 °F 72% 29.89 in 10.0 mi South 8.1 mph - N/A   Partly Cloudy
11:54 AM 82.0 °F 86.3 °F 71.1 °F 69% 29.87 in 10.0 mi South 5.8 mph - N/A   Mostly Cloudy
11:56 AM 82.4 °F 87.2 °F 71.6 °F 70% 29.90 in 10.0 mi South 4.6 mph - N/A   Mostly Cloudy
12:07 PM 82.4 °F 87.2 °F 71.6 °F 70% 29.89 in 10.0 mi Variable 3.5 mph - N/A   Partly Cloudy
12:54 PM 84.0 °F 89.6 °F 72.0 °F 67% 29.86 in 10.0 mi SSE 8.1 mph - N/A   Partly Cloudy
1:41 PM 84.2 °F 89.6 °F 71.6 °F 66% 29.89 in 10.0 mi SSW 4.6 mph - N/A   Mostly Cloudy
1:52 PM 84.2 °F 88.4 °F 69.8 °F 62% 29.89 in 10.0 mi Calm Calm - N/A   Mostly Cloudy
1:54 PM 84.9 °F 89.4 °F 70.0 °F 61% 29.86 in 10.0 mi Calm Calm - N/A   Mostly Cloudy
2:54 PM 86.0 °F 92.2 °F 72.0 °F 63% 29.85 in 10.0 mi SE 10.4 mph - 0.01 in   Scattered Clouds
3:54 PM 86.0 °F 90.7 °F 70.0 °F 59% 29.84 in 10.0 mi South 12.7 mph - N/A   Partly Cloudy
4:54 PM 86.0 °F 91.5 °F 71.1 °F 61% 29.82 in 10.0 mi SSE 10.4 mph - N/A   Clear
5:54 PM 86.0 °F 91.5 °F 71.1 °F 61% 29.82 in 10.0 mi South 8.1 mph - N/A   Clear
6:54 PM 84.0 °F 89.0 °F 71.1 °F 65% 29.82 in 10.0 mi SSE 3.5 mph - N/A   Clear
7:54 PM 82.0 °F 86.3 °F 71.1 °F 69% 29.83 in 10.0 mi ESE 4.6 mph - N/A   Clear
8:54 PM 80.1 °F 83.6 °F 71.1 °F 74% 29.84 in 10.0 mi ESE 4.6 mph - N/A   Clear
9:54 PM 77.0 °F - 71.1 °F 82% 29.85 in 10.0 mi SE 5.8 mph - N/A   Clear
10:54 PM 77.0 °F - 71.1 °F 82% 29.85 in 10.0 mi ESE 4.6 mph - N/A   Clear
11:54 PM 75.9 °F - 71.1 °F 85% 29.85 in 10.0 mi ESE 5.8 mph - N/A   Clear